Volver al catálogo

BEIDOU 3 M28

ActivoNavegaciónMEO
NORAD 58654·PAYLOAD·🇨🇳 China

Lanzado Dec 26, 2023 desde Xichang Satellite Launch Center

Loading…

Próximos Pases (próximas 24 horas)

TLE

ActualizadoSource: Space-Track

Época: Sep 14, 2026, 10:25 UTC

1 58654U 23207A   26257.43424630 -.00000051  00000-0  00000-0 0  9997
2 58654  55.8368  59.2971 0000655  45.3182 314.6983  1.86229739 18502

Sigue BEIDOU 3 M28 en tiempo real con AllMySat

Download on the App Store